CZ-6A DEB, 55519

Orbit data source: Space-Track

CZ-6A DEB, 55519 is space debris in SSO originally from a launch on Fri, 11 Nov 2022 UTC launched from the Taiyaun Space Center, China (TSC). Debris objects in space refer to the collection of defunct objects orbiting the Earth. Examples of debris include non-operational satellites, rocket bodies, and fragments generated from explosions, collisions, or faulty payload assembly.

Loading next visibility...
Identifier
55519, 2022-151XR
Orbit
SSO
Country
Flag of CNCN / PRC
Related business
Manufacturer
SAST
Mission
Spacecraft
Bus & Motor
Unknown
Mass
Unknown
Launch date (UTC)
2022-11-11 (4 years ago)
Launch vehicle
Unknown
Launch site
Taiyaun Space Center, China (TSC)
Object type
Payload
Rocket body
Debris
Shape & HBR
Unknown shape, 0.1 m
Radar Cross Section
Small (<0.1 m²)

Expand to show TLE details & history
Last TLE update: 2 days ago

TLE from 2 days ago
0 CZ-6A DEB
1 55519U 22151XR  26171.20962373  .00039086  00000-0  35897-2 0  9995
2 55519  98.7669 268.9619 0026187 210.3832 149.5869 14.94437464186223
Epoch: 2026-06-20T05:01Z
TLE epoch observation values (Epoch: 2026-06-20T05:01:51.490Z)
Latitude
0.00003°
Longitude
-74.93017°
Altitude
602.872 km
Speed
7.55 km/s
True Right ascension
17h 55m 50s
True Declination
0° 00' 00"
Sunlit
Object was in full shadow at epoch
Visualization orbit readout
Latitude
Unknown
Longitude
Unknown
Altitude
Unknown
Speed
Unknown
Apparent Right ascension
Unknown
Apparent Declination
Unknown
Sunlit
N/A
Visualization observer readout
Local Sidereal Time
21:30:46
Azimuth
Unknown
Elevation
Unknown
Doppler factor
Unknown
Orbital elements
Apogee altitude
599.406 km
Perigee altitude
562.958 km
Semi-major axis
6,959.319 km
Eccentricity
0.00262
Inclination
98.7669°
RAAN
268.9619°
Arg. of periapsis
210.3832°
True anomaly
149.73838°
Mean anomaly
149.5869°
Eccentric anomaly
149.66268°
Mean motion
3.73846 °/min
Orbital period
96.3 mins
BSTAR
0.0035897
Loading maneuver chart data...
Computing Atmospheric mass density...
Loading historical data...
Loading historical data...
Loading historical data...
Loading historical data...
Loading historical data...
Loading historical data...
Loading historical data...

Documentation

Showing up to 5 results
|